Location: Hauppauge
(40.8260°N, 73.2030°W)
Time: 11:07:21
(UTC-04:00)

Daily predictions for brighter satellites

Satellite Brightness Start Highest point End
(mag) Time Altitude Azimuth Time Altitude Azimuth Time Altitude Azimuth
H-2A R/B 3.1 20:42:15 10° S 20:46:11 73° WSW 20:50:10 10° NNW
Resurs 01 Rocket 4.4 20:45:47 10° SW 20:48:44 17° W 20:51:43 10° NW
Cosmos 1891 Rocket 4.5 20:50:31 10° N 20:56:39 83° E 21:02:41 10° S
COSMOS 2455 2.8 20:52:08 10° SSW 20:58:05 71° ESE 21:04:05 10° NNE
SeaSat 1 3.6 20:56:20 10° ESE 21:00:35 30° NE 21:04:52 10° N
ALOS 3.5 21:03:34 10° S 21:07:58 41° W 21:12:24 10° NNW
Cosmos 2369 Rocket 2.7 21:07:06 10° NNW 21:12:35 48° ENE 21:17:25 13° SE
CZ-4B R/B 4.3 21:10:34 10° NE 21:15:09 32° E 21:19:48 10° SSE
ISS -2.1 21:12:13 10° WSW 21:15:22 45° NNW 21:18:31 10° NE
Cosmos 1666 4.2 21:13:01 10° NNW 21:16:39 38° W 21:20:16 10° SSW
Cosmos 1190 Rocket 4.4 21:13:02 10° S 21:18:03 45° ESE 21:23:06 10° NNE
Cosmos 1602 Rocket 4.1 21:13:49 10° SSW 21:18:14 62° W 21:22:41 10° N
USA 186 4.3 21:18:03 10° SW 21:19:43 15° W 21:21:21 10° WNW
ATLAS 3B R/B 3.0 21:12:27 10° SSW 21:19:56 57° ESE 21:27:17 10° NE
Cosmos 1825 Rocket 4.0 21:17:47 10° SSE 21:22:00 44° E 21:26:13 10° NNE
H-2A R/B 3.9 21:24:28 10° E 21:27:19 15° ENE 21:30:12 10° NNE
Cosmos 1812 Rocket 3.8 21:25:11 10° NNW 21:29:34 70° W 21:33:58 10° S
Tsikada Rocket 4.3 21:24:05 10° SSW 21:30:28 73° W 21:36:52 10° N
PSLV R/B 3.4 21:28:41 10° W 21:32:14 84° N 21:35:25 13° E
YAOGAN 6 3.4 21:31:59 19° SE 21:34:12 38° ENE 21:37:42 10° N
UNK 4.3 21:29:58 10° NNE 21:35:27 63° ESE 21:41:11 10° S
SPOT 1/Viking Rocket 4.0 21:32:17 17° SE 21:36:00 46° ENE 21:40:55 10° N
CZ-2C R/B 3.4 21:34:45 10° SW 21:36:03 14° W 21:37:21 10° WNW
SPOT 5 2.5 21:32:24 14° SSE 21:36:11 85° ENE 21:40:31 10° NNW
Terra 3.7 21:35:49 12° E 21:38:18 17° ENE 21:41:16 10° NNE
USA 234 3.9 21:34:30 11° ESE 21:40:35 49° NNE 21:46:52 10° NW
H-2A R/B 3.3 21:37:21 10° S 21:41:22 40° W 21:45:30 10° NNW
Lacrosse 4 Rocket 1.2 21:38:52 10° SSW 21:42:53 75° ESE 21:46:59 10° NNE
CZ-4 SHROUD 3.6 21:40:45 17° S 21:43:04 63° W 21:46:12 10° NNW
ERS-1 Rocket 4.3 21:39:08 10° SSW 21:43:44 36° W 21:48:22 10° NNW
Cosmos 2263 4.3 21:40:10 10° NNW 21:45:45 64° ENE 21:49:30 21° SE
Cosmos 1515 4.3 21:44:32 10° SSW 21:48:20 59° W 21:52:10 10° N
PSLV R/B 3.8 21:47:37 18° S 21:49:43 52° W 21:52:47 10° NNW
COSMOS 2406 4.1 21:51:43 22° SE 21:53:52 28° ESE 21:58:39 10° NE
Cosmos 2142 Rocket 4.5 21:48:03 10° N 21:54:23 83° E 21:59:14 17° S
Cosmos 1066 Rocket 4.3 21:49:20 10° S 21:55:03 89° W 22:00:55 10° N
MetOp-A 4.2 21:52:37 17° S 21:56:47 82° WSW 22:02:11 10° NNW
Atlas Centaur 2 3.5 21:52:21 10° WSW 21:58:58 38° S 22:03:24 22° SE
Envisat 3.7 21:54:15 11° S 21:58:59 50° W 22:03:56 10° NNW
Cosmos 1634 Rocket 4.0 21:56:10 10° N 22:02:22 82° W 22:07:18 17° S
USA 245 4.1 21:58:44 21° SSE 22:02:42 82° ENE 22:07:36 10° N
Cosmos 407 Rocket 3.5 21:57:34 10° SSW 22:02:51 89° WNW 22:08:06 10° NNE
CZ-4C R/B 4.0 22:02:51 29° ESE 22:04:25 43° ENE 22:08:14 10° N
USA 238 DEB 4.0 21:58:10 10° S 22:04:52 47° ESE 22:11:34 10° NE
USA 238 4.0 21:58:17 10° S 22:04:58 46° ESE 22:11:39 10° NE
Meteor 1-22 Rocket 4.2 22:00:09 10° N 22:05:49 90° E 22:09:45 22° S
Cosmos 1943 Rocket 2.6 22:00:38 10° NNW 22:06:02 51° ENE 22:08:55 26° SE
Cosmos 1953 Rocket 3.7 22:06:21 15° SSW 22:09:59 73° W 22:14:28 10° N
SL-27 R/B 2.6 22:11:35 44° ESE 22:11:41 45° ESE 22:14:54 10° NNE
Cosmos-2242 3.5 22:09:04 10° N 22:13:19 46° ENE 22:14:41 34° SE
Cosmos 1943 4.1 22:07:51 10° SW 22:13:22 51° WNW 22:18:56 10° NNE
Cosmos 1953 2.8 22:16:00 10° N 22:19:48 42° ENE 22:20:31 38° ESE
Cosmos 1607 4.3 22:17:40 26° SSE 22:20:42 42° ESE 22:26:31 10° NE
SL-08 RB Rocket 3.6 22:19:22 35° SSE 22:21:17 83° ENE 22:25:48 10° N
Cosmos 2279 Rocket 3.9 22:15:53 10° N 22:22:10 83° E 22:25:44 28° S
Cosmos 1954 Rocket 3.9 22:19:49 18° SSW 22:23:49 81° ESE 22:29:08 10° NNE
Cosmos 1932 4.3 22:19:22 10° SSW 22:25:32 79° ESE 22:31:47 10° NE
Cosmos 1346 Rocket 4.2 22:27:06 12° SW 22:30:26 36° WNW 22:34:07 10° N
CZ-4C R/B 3.6 22:32:02 19° E 22:32:02 19° E 22:35:04 10° ENE
Cosmos 2208 Rocket 4.4 22:28:44 10° N 22:33:48 50° ENE 22:35:28 36° ESE
Cosmos 1842 3.3 22:35:17 42° SSW 22:36:30 76° W 22:40:25 10° N
SeaSat 1 3.5 22:35:39 24° SSW 22:37:59 37° WSW 22:42:34 10° NW
ARGOS 3.5 22:36:49 28° S 22:39:37 59° W 22:45:00 10° NNW
CARTOSAT-1 3.5 22:45:04 57° SSE 22:45:55 78° ENE 22:50:15 10° N
Cosmos 1741 Rocket 4.0 22:45:25 44° SSE 22:46:56 63° ESE 22:52:12 10° NNE
Geosat 3.9 22:46:07 10° NNE 22:51:11 85° ESE 22:53:29 33° SSW
ISS -0.1 22:50:29 10° NW 22:52:26 15° NNW 22:54:24 10° NNE
Cosmos 2369 Rocket 3.9 22:51:52 10° NW 22:56:14 24° W 22:59:14 15° SW
Landsat 7 4.2 22:58:24 40° SSW 22:59:46 55° W 23:04:27 10° NNW
Cosmos 1850 Rocket 3.9 23:01:16 43° SSW 23:03:03 90° WNW 23:08:18 10° NNE
H-2A R/B 2.1 23:04:51 48° SSW 23:06:07 66° WSW 23:11:12 10° NNW
Cosmos 1570 Rocket 4.0 23:01:34 10° NNW 23:06:57 76° WSW 23:08:12 53° S
Meteor 2-5 Rocket 4.0 23:06:10 47° SE 23:07:15 54° E 23:12:52 10° NNE
Cosmos 1758 3.9 23:03:45 10° NNW 23:07:45 50° W 23:08:15 47° WSW
Cosmos 1140 Rocket 3.9 23:07:18 27° SW 23:10:06 60° WNW 23:15:19 10° NNE
ATLAS 3B R/B 4.3 23:03:57 10° WSW 23:11:00 38° NW 23:17:53 10° NNE
Spot 4 3.8 23:11:57 60° SSW 23:12:44 74° WSW 23:17:32 10° NNW
IGS 5A 3.6 23:12:41 58° WSW 23:12:57 60° W 23:17:05 10° NNW
Cosmos 1842 Rocket 3.5 23:10:37 10° NNW 23:14:59 71° W 23:15:21 67° SW
Terra 2.2 23:14:42 47° SW 23:15:35 55° W 23:20:17 10° NNW
Cosmos 1340 3.2 23:17:41 52° NE 23:17:41 52° NE 23:20:44 10° NNE
NOSS 3-2 (A) 3.4 23:20:30 52° SSE 23:21:37 61° ESE 23:28:05 10° NE
USA 234 3.5 23:21:50 43° S 23:23:31 53° SW 23:29:56 10° NW
Cosmos 1544 3.6 23:20:41 10° NNW 23:23:55 59° NW 23:23:55 59° NW
Cosmos 1470 3.0 23:24:34 10° N 23:27:56 64° NNW 23:27:56 64° NNW
Cosmos 1092 Rocket 4.1 23:27:08 43° SSW 23:29:21 76° W 23:35:39 10° N
Lacrosse 5 4.1 23:28:30 10° NNW 23:32:17 21° NNE 23:36:05 10° ENE
Cosmos 614 Rocket 4.3 23:30:46 40° SW 23:32:25 60° WNW 23:37:36 10° NNE
H-2A R/B 4.4 23:30:23 10° NE 23:31:55 18° ENE 23:31:55 18° ENE
COSMOS 2406 4.3 23:33:42 16° SW 23:37:57 42° WNW 23:43:24 10° N
Cosmos 1076 Rocket 4.2 23:44:25 44° NE 23:44:25 44° NE 23:47:41 10° NNE
Cosmos 1486 Rocket 4.4 23:46:58 47° E 23:46:58 47° E 23:51:28 10° NNE
Atlas Centaur 2 4.1 23:41:30 10° WSW 23:46:01 25° SW 23:46:01 25° SW
Cosmos 2221 2.7 23:43:51 10° N 23:47:39 68° N 23:47:39 68° N
Cosmos 1766 Rocket 4.1 23:49:03 49° ENE 23:49:03 49° ENE 23:52:45 10° NNE
Cosmos 2082 Rocket 3.4 23:49:20 27° E 23:49:20 27° E 23:53:16 10° NE
Cosmos 1943 Rocket 3.8 23:45:15 10° NW 23:49:22 22° W 23:50:27 20° WSW
S3M 4.2 23:43:59 10° N 23:50:06 56° E 23:51:06 50° ESE
SL-8 R/B 4.0 23:45:38 10° WNW 23:49:39 56° W 23:49:39 56° W
Cosmos 1833 Rocket 4.2 23:52:22 22° E 23:52:22 22° E 23:55:43 10° NE
COSMOS 2487 4.2 23:54:06 29° WNW 23:54:06 29° WNW 23:57:07 10° N
